Location: Brno
(49.2000°N, 16.6330°E)
Time: 18:26:14
(UTC+02:00)

Transit 4A - Pass Details

Date: 04 August 2021
Orbit: 871 x 974 km, 66.8° (Epoch: 16 September)

Event Time Altitude Azimuth Distance (km) Brightness Sun altitude
Rises 09:57:47 0° 316° (NW) 3,481 10.5 41.4°
Reaches altitude 10° 10:00:40 10° 304° (WNW) 2,548 9.9 41.8°
Maximum altitude 10:05:18 25° 251° (WSW) 1,733 9.3 42.5°
Drops below altitude 10° 10:10:01 10° 199° (SSW) 2,580 10.4 43.2°
Sets 10:12:58 0° 186° (S) 3,535 11.2 43.6°
